Year,Month,Day,Hour,Minute,Value (Times are PST for temperature in C)
2010,08,29,00,00,12.40
2010,08,29,00,01,12.40
2010,08,29,00,02,12.40
2010,08,29,00,03,12.40
2010,08,29,00,04,12.40
2010,08,29,00,05,12.40
2010,08,29,00,06,12.40
2010,08,29,00,07,12.30
2010,08,29,00,08,12.30
2010,08,29,00,09,12.30
2010,08,29,00,10,12.30
2010,08,29,00,11,12.30
2010,08,29,00,12,12.20
2010,08,29,00,13,12.20
2010,08,29,00,14,12.10
2010,08,29,00,15,12.10
2010,08,29,00,16,12.00
2010,08,29,00,17,11.90
2010,08,29,00,18,11.90
2010,08,29,00,19,11.80
2010,08,29,00,20,11.80
2010,08,29,00,21,11.80
2010,08,29,00,22,11.80
2010,08,29,00,23,11.70
2010,08,29,00,24,11.70
2010,08,29,00,25,11.70
2010,08,29,00,26,11.70
2010,08,29,00,27,11.70
2010,08,29,00,28,11.70
2010,08,29,00,29,11.70
2010,08,29,00,30,11.70
2010,08,29,00,31,11.60
2010,08,29,00,32,11.60
2010,08,29,00,33,11.60
2010,08,29,00,34,11.60
2010,08,29,00,35,11.60
2010,08,29,00,36,11.60
2010,08,29,00,37,11.60
2010,08,29,00,38,11.60
2010,08,29,00,39,11.60
2010,08,29,00,40,11.60
2010,08,29,00,41,11.60
2010,08,29,00,42,11.60
2010,08,29,00,43,11.70
2010,08,29,00,44,11.70
2010,08,29,00,45,11.60
2010,08,29,00,46,11.60
2010,08,29,00,47,11.60
2010,08,29,00,48,11.60
2010,08,29,00,49,11.60
2010,08,29,00,50,11.50
2010,08,29,00,51,11.40
2010,08,29,00,52,11.40
2010,08,29,00,53,11.40
2010,08,29,00,54,11.40
2010,08,29,00,55,11.40
2010,08,29,00,56,11.40
2010,08,29,00,57,11.40
2010,08,29,00,58,11.40
2010,08,29,00,59,11.40
2010,08,29,01,00,11.30
2010,08,29,01,01,11.30
2010,08,29,01,02,11.30
2010,08,29,01,03,11.30
2010,08,29,01,04,11.30
2010,08,29,01,05,11.30
2010,08,29,01,06,11.30
2010,08,29,01,07,11.30
2010,08,29,01,08,11.30
2010,08,29,01,09,11.30
2010,08,29,01,10,11.30
2010,08,29,01,11,11.30
2010,08,29,01,12,11.30
2010,08,29,01,13,11.30
2010,08,29,01,14,11.30
2010,08,29,01,15,11.30
2010,08,29,01,16,11.30
2010,08,29,01,17,11.30
2010,08,29,01,18,11.30
2010,08,29,01,19,11.30
2010,08,29,01,20,11.30
2010,08,29,01,21,11.30
2010,08,29,01,22,11.30
2010,08,29,01,23,11.30
2010,08,29,01,24,11.30
2010,08,29,01,25,11.30
2010,08,29,01,26,11.30
2010,08,29,01,27,11.30
2010,08,29,01,28,11.30
2010,08,29,01,29,11.30
2010,08,29,01,30,11.30
2010,08,29,01,31,11.30
2010,08,29,01,32,11.20
2010,08,29,01,33,11.20
2010,08,29,01,34,11.10
2010,08,29,01,35,11.10
2010,08,29,01,36,11.00
2010,08,29,01,37,10.90
2010,08,29,01,38,10.90
2010,08,29,01,39,10.90
2010,08,29,01,40,10.90
2010,08,29,01,41,10.90
2010,08,29,01,42,10.90
2010,08,29,01,43,10.90
2010,08,29,01,44,10.90
2010,08,29,01,45,10.90
2010,08,29,01,46,10.80
2010,08,29,01,47,10.80
2010,08,29,01,48,10.80
2010,08,29,01,49,10.80
2010,08,29,01,50,10.80
2010,08,29,01,51,10.70
2010,08,29,01,52,10.70
2010,08,29,01,53,10.70
2010,08,29,01,54,10.70
2010,08,29,01,55,10.70
2010,08,29,01,56,10.70
2010,08,29,01,57,10.60
2010,08,29,01,58,10.60
2010,08,29,01,59,10.50
2010,08,29,02,00,10.40
2010,08,29,02,01,10.30
2010,08,29,02,02,10.20
2010,08,29,02,03,10.20
2010,08,29,02,04,10.10
2010,08,29,02,05,10.10
2010,08,29,02,06,10.20
2010,08,29,02,07,10.20
2010,08,29,02,08,10.30
2010,08,29,02,09,10.30
2010,08,29,02,10,10.40
2010,08,29,02,11,10.40
2010,08,29,02,12,10.40
2010,08,29,02,13,10.40
2010,08,29,02,14,10.40
2010,08,29,02,15,10.30
2010,08,29,02,16,10.30
2010,08,29,02,17,10.20
2010,08,29,02,18,10.20
2010,08,29,02,19,10.10
2010,08,29,02,20,10.10
2010,08,29,02,21,10.10
2010,08,29,02,22,10.10
2010,08,29,02,23,10.10
2010,08,29,02,24,10.10
2010,08,29,02,25,10.10
2010,08,29,02,26,10.10
2010,08,29,02,27,10.10
2010,08,29,02,28,10.10
2010,08,29,02,29,10.10
2010,08,29,02,30,10.10
2010,08,29,02,31,10.10
2010,08,29,02,32,10.10
2010,08,29,02,33,10.10
2010,08,29,02,34,10.10
2010,08,29,02,35,10.20
2010,08,29,02,36,10.20
2010,08,29,02,37,10.20
2010,08,29,02,38,10.20
2010,08,29,02,39,10.20
2010,08,29,02,40,10.30
2010,08,29,02,41,10.30
2010,08,29,02,42,10.30
2010,08,29,02,43,10.30
2010,08,29,02,44,10.30
2010,08,29,02,45,10.30
2010,08,29,02,46,10.30
2010,08,29,02,47,10.30
2010,08,29,02,48,10.30
2010,08,29,02,49,10.30
2010,08,29,02,50,10.30
2010,08,29,02,51,10.20
2010,08,29,02,52,10.10
2010,08,29,02,53,10.10
2010,08,29,02,54,10.10
2010,08,29,02,55,10.20
2010,08,29,02,56,10.30
2010,08,29,02,57,10.30
2010,08,29,02,58,10.40
2010,08,29,02,59,10.40
2010,08,29,03,00,10.40
2010,08,29,03,01,10.50
2010,08,29,03,02,10.60
2010,08,29,03,03,10.60
2010,08,29,03,04,10.60
2010,08,29,03,05,10.60
2010,08,29,03,06,10.60
2010,08,29,03,07,10.50
2010,08,29,03,08,10.40
2010,08,29,03,09,10.40
2010,08,29,03,10,10.40
2010,08,29,03,11,10.40
2010,08,29,03,12,10.40
2010,08,29,03,13,10.30
2010,08,29,03,14,10.30
2010,08,29,03,15,10.30
2010,08,29,03,16,10.30
2010,08,29,03,17,10.30
2010,08,29,03,18,10.30
2010,08,29,03,19,10.30
2010,08,29,03,20,10.30
2010,08,29,03,21,10.30
2010,08,29,03,22,10.20
2010,08,29,03,23,10.20
2010,08,29,03,24,10.10
2010,08,29,03,25,10.10
2010,08,29,03,26,10.10
2010,08,29,03,27,10.10
2010,08,29,03,28,10.20
2010,08,29,03,29,10.20
2010,08,29,03,30,10.20
2010,08,29,03,31,10.20
2010,08,29,03,32,10.20
2010,08,29,03,33,10.20
2010,08,29,03,34,10.20
2010,08,29,03,35,10.20
2010,08,29,03,36,10.10
2010,08,29,03,37,10.10
2010,08,29,03,38,10.00
2010,08,29,03,39,9.90
2010,08,29,03,40,9.80
2010,08,29,03,41,9.80
2010,08,29,03,42,9.80
2010,08,29,03,43,9.80
2010,08,29,03,44,9.70
2010,08,29,03,45,9.70
2010,08,29,03,46,9.70
2010,08,29,03,47,9.70
2010,08,29,03,48,9.70
2010,08,29,03,49,9.70
2010,08,29,03,50,9.70
2010,08,29,03,51,9.70
2010,08,29,03,52,9.70
2010,08,29,03,53,9.70
2010,08,29,03,54,9.70
2010,08,29,03,55,9.70
2010,08,29,03,56,9.70
2010,08,29,03,57,9.70
2010,08,29,03,58,9.70
2010,08,29,03,59,9.70
2010,08,29,04,00,9.70
2010,08,29,04,01,9.70
2010,08,29,04,02,9.70
2010,08,29,04,03,9.70
2010,08,29,04,04,9.70
2010,08,29,04,05,9.70
2010,08,29,04,06,9.70
2010,08,29,04,07,9.70
2010,08,29,04,08,9.70
2010,08,29,04,09,9.70
2010,08,29,04,10,9.70
2010,08,29,04,11,9.70
2010,08,29,04,12,9.70
2010,08,29,04,13,9.70
2010,08,29,04,14,9.70
2010,08,29,04,15,9.60
2010,08,29,04,16,9.60
2010,08,29,04,17,9.60
2010,08,29,04,18,9.50
2010,08,29,04,19,9.50
2010,08,29,04,20,9.50
2010,08,29,04,21,9.50
2010,08,29,04,22,9.50
2010,08,29,04,23,9.50
2010,08,29,04,24,9.50
2010,08,29,04,25,9.50
2010,08,29,04,26,9.40
2010,08,29,04,27,9.40
2010,08,29,04,28,9.50
2010,08,29,04,29,9.50
2010,08,29,04,30,9.50
2010,08,29,04,31,9.60
2010,08,29,04,32,9.60
2010,08,29,04,33,9.60
2010,08,29,04,34,9.60
2010,08,29,04,35,9.60
2010,08,29,04,36,9.50
2010,08,29,04,37,9.50
2010,08,29,04,38,9.40
2010,08,29,04,39,9.40
2010,08,29,04,40,9.40
2010,08,29,04,41,9.40
2010,08,29,04,42,9.40
2010,08,29,04,43,9.40
2010,08,29,04,44,9.40
2010,08,29,04,45,9.40
2010,08,29,04,46,9.40
2010,08,29,04,47,9.40
2010,08,29,04,48,9.40
2010,08,29,04,49,9.40
2010,08,29,04,50,9.40
2010,08,29,04,51,9.30
2010,08,29,04,52,9.40
2010,08,29,04,53,9.40
2010,08,29,04,54,9.40
2010,08,29,04,55,9.40
2010,08,29,04,56,9.40
2010,08,29,04,57,9.40
2010,08,29,04,58,9.40
2010,08,29,04,59,9.40
2010,08,29,05,00,9.40
2010,08,29,05,01,9.40
2010,08,29,05,02,9.40
2010,08,29,05,03,9.40
2010,08,29,05,04,9.40
2010,08,29,05,05,9.30
2010,08,29,05,06,9.30
2010,08,29,05,07,9.30
2010,08,29,05,08,9.20
2010,08,29,05,09,9.20
2010,08,29,05,10,9.10
2010,08,29,05,11,9.10
2010,08,29,05,12,9.10
2010,08,29,05,13,9.00
2010,08,29,05,14,9.00
2010,08,29,05,15,9.00
2010,08,29,05,16,9.00
2010,08,29,05,17,9.00
2010,08,29,05,18,9.00
2010,08,29,05,19,9.00
2010,08,29,05,20,8.90
2010,08,29,05,21,8.90
2010,08,29,05,22,8.80
2010,08,29,05,23,8.70
2010,08,29,05,24,8.70
2010,08,29,05,25,8.70
2010,08,29,05,26,8.70
2010,08,29,05,27,8.70
2010,08,29,05,28,8.70
2010,08,29,05,29,8.60
2010,08,29,05,30,8.60
2010,08,29,05,31,8.50
2010,08,29,05,32,8.50
2010,08,29,05,33,8.40
2010,08,29,05,34,8.40
2010,08,29,05,35,8.40
2010,08,29,05,36,8.40
2010,08,29,05,37,8.50
2010,08,29,05,38,8.50
2010,08,29,05,39,8.50
2010,08,29,05,40,8.50
2010,08,29,05,41,8.60
2010,08,29,05,42,8.60
2010,08,29,05,43,8.60
2010,08,29,05,44,8.60
2010,08,29,05,45,8.50
2010,08,29,05,46,8.50
2010,08,29,05,47,8.50
2010,08,29,05,48,8.50
2010,08,29,05,49,8.60
2010,08,29,05,50,8.60
2010,08,29,05,51,8.70
2010,08,29,05,52,8.70
2010,08,29,05,53,8.70
2010,08,29,05,54,8.80
2010,08,29,05,55,8.80
2010,08,29,05,56,8.80
2010,08,29,05,57,8.80
2010,08,29,05,58,8.90
2010,08,29,05,59,8.90
2010,08,29,06,00,8.90
2010,08,29,06,01,8.90
2010,08,29,06,02,8.90
2010,08,29,06,03,8.90
2010,08,29,06,04,8.80
2010,08,29,06,05,8.70
2010,08,29,06,06,8.60
2010,08,29,06,07,8.50
2010,08,29,06,08,8.40
2010,08,29,06,09,8.40
2010,08,29,06,10,8.30
2010,08,29,06,11,8.30
2010,08,29,06,12,8.20
2010,08,29,06,13,8.20
2010,08,29,06,14,8.20
2010,08,29,06,15,8.30
2010,08,29,06,16,8.30
2010,08,29,06,17,8.40
2010,08,29,06,18,8.50
2010,08,29,06,19,8.50
2010,08,29,06,20,8.60
2010,08,29,06,21,8.60
2010,08,29,06,22,8.70
2010,08,29,06,23,8.70
2010,08,29,06,24,8.70
2010,08,29,06,25,8.60
2010,08,29,06,26,8.50
2010,08,29,06,27,8.50
2010,08,29,06,28,8.40
2010,08,29,06,29,8.40
2010,08,29,06,30,8.40
2010,08,29,06,31,8.50
2010,08,29,06,32,8.50
2010,08,29,06,33,8.60
2010,08,29,06,34,8.70
2010,08,29,06,35,8.80
2010,08,29,06,36,8.90
2010,08,29,06,37,8.90
2010,08,29,06,38,9.00
2010,08,29,06,39,9.00
2010,08,29,06,40,9.10
2010,08,29,06,41,9.10
2010,08,29,06,42,9.10
2010,08,29,06,43,9.10
2010,08,29,06,44,9.20
2010,08,29,06,45,9.20
2010,08,29,06,46,9.40
2010,08,29,06,47,9.40
2010,08,29,06,48,9.50
2010,08,29,06,49,9.50
2010,08,29,06,50,9.60
2010,08,29,06,51,9.60
2010,08,29,06,52,9.60
2010,08,29,06,53,9.60
2010,08,29,06,54,9.60
2010,08,29,06,55,9.60
2010,08,29,06,56,9.60
2010,08,29,06,57,9.50
2010,08,29,06,58,9.50
2010,08,29,06,59,9.40
2010,08,29,07,00,9.40
2010,08,29,07,01,9.30
2010,08,29,07,02,9.30
2010,08,29,07,03,9.20
2010,08,29,07,04,9.20
2010,08,29,07,05,9.20
2010,08,29,07,06,9.10
2010,08,29,07,07,9.10
2010,08,29,07,08,9.00
2010,08,29,07,09,8.90
2010,08,29,07,10,8.90
2010,08,29,07,11,8.80
2010,08,29,07,12,8.80
2010,08,29,07,13,8.80
2010,08,29,07,14,8.80
2010,08,29,07,15,8.80
2010,08,29,07,16,8.80
2010,08,29,07,17,8.70
2010,08,29,07,18,8.70
2010,08,29,07,19,8.60
2010,08,29,07,20,8.60
2010,08,29,07,21,8.60
2010,08,29,07,22,8.70
2010,08,29,07,23,8.70
2010,08,29,07,24,8.70
2010,08,29,07,25,8.70
2010,08,29,07,26,8.70
2010,08,29,07,27,8.80
2010,08,29,07,28,8.80
2010,08,29,07,29,8.80
2010,08,29,07,30,8.90
2010,08,29,07,31,8.90
2010,08,29,07,32,9.00
2010,08,29,07,33,9.10
2010,08,29,07,34,9.20
2010,08,29,07,35,9.20
2010,08,29,07,36,9.20
2010,08,29,07,37,9.20
2010,08,29,07,38,9.30
2010,08,29,07,39,9.30
2010,08,29,07,40,9.40
2010,08,29,07,41,9.50
2010,08,29,07,42,9.60
2010,08,29,07,43,9.70
2010,08,29,07,44,9.80
2010,08,29,07,45,9.80
2010,08,29,07,46,9.90
2010,08,29,07,47,9.90
2010,08,29,07,48,9.90
2010,08,29,07,49,10.00
2010,08,29,07,50,10.10
2010,08,29,07,51,10.10
2010,08,29,07,52,10.10
2010,08,29,07,53,10.20
2010,08,29,07,54,10.20
2010,08,29,07,55,10.30
2010,08,29,07,56,10.30
2010,08,29,07,57,10.40
2010,08,29,07,58,10.50
2010,08,29,07,59,10.60
2010,08,29,08,00,10.70
2010,08,29,08,01,10.90
2010,08,29,08,02,10.90
2010,08,29,08,03,11.00
2010,08,29,08,04,11.10
2010,08,29,08,05,11.00
2010,08,29,08,06,10.90
2010,08,29,08,07,10.90
2010,08,29,08,08,10.90
2010,08,29,08,09,10.90
2010,08,29,08,10,11.00
2010,08,29,08,11,10.90
2010,08,29,08,12,10.90
2010,08,29,08,13,10.90
2010,08,29,08,14,10.90
2010,08,29,08,15,10.90
2010,08,29,08,16,10.90
2010,08,29,08,17,11.00
2010,08,29,08,18,11.10
2010,08,29,08,19,11.10
2010,08,29,08,20,11.20
2010,08,29,08,21,11.30
2010,08,29,08,22,11.50
2010,08,29,08,23,11.60
2010,08,29,08,24,11.70
2010,08,29,08,25,11.80
2010,08,29,08,26,11.80
2010,08,29,08,27,11.80
2010,08,29,08,28,11.80
2010,08,29,08,29,11.90
2010,08,29,08,30,11.90
2010,08,29,08,31,11.80
2010,08,29,08,32,11.80
2010,08,29,08,33,11.90
2010,08,29,08,34,11.90
2010,08,29,08,35,11.80
2010,08,29,08,36,11.90
2010,08,29,08,37,12.00
2010,08,29,08,38,12.00
2010,08,29,08,39,12.10
2010,08,29,08,40,12.20
2010,08,29,08,41,12.20
2010,08,29,08,42,12.30
2010,08,29,08,43,12.30
2010,08,29,08,44,12.30
2010,08,29,08,45,12.40
2010,08,29,08,46,12.40
2010,08,29,08,47,12.50
2010,08,29,08,48,12.60
2010,08,29,08,49,12.60
2010,08,29,08,50,12.60
2010,08,29,08,51,12.70
2010,08,29,08,52,12.80
2010,08,29,08,53,12.80
2010,08,29,08,54,12.80
2010,08,29,08,55,12.80
2010,08,29,08,56,12.80
2010,08,29,08,57,12.90
2010,08,29,08,58,12.90
2010,08,29,08,59,13.00
2010,08,29,09,00,13.10
2010,08,29,09,01,13.10
2010,08,29,09,02,13.20
2010,08,29,09,03,13.20
2010,08,29,09,04,13.20
2010,08,29,09,05,13.30
2010,08,29,09,06,13.30
2010,08,29,09,07,13.30
2010,08,29,09,08,13.40
2010,08,29,09,09,13.50
2010,08,29,09,10,13.50
2010,08,29,09,11,13.60
2010,08,29,09,12,13.70
2010,08,29,09,13,13.70
2010,08,29,09,14,13.80
2010,08,29,09,15,13.90
2010,08,29,09,16,14.00
2010,08,29,09,17,14.00
2010,08,29,09,18,14.00
2010,08,29,09,19,14.10
2010,08,29,09,20,14.10
2010,08,29,09,21,14.10
2010,08,29,09,22,14.20
2010,08,29,09,23,14.20
2010,08,29,09,24,14.20
2010,08,29,09,25,14.20
2010,08,29,09,26,14.20
2010,08,29,09,27,14.20
2010,08,29,09,28,14.20
2010,08,29,09,29,14.20
2010,08,29,09,30,14.20
2010,08,29,09,31,14.20
2010,08,29,09,32,14.20
2010,08,29,09,33,14.20
2010,08,29,09,34,14.20
2010,08,29,09,35,14.20
2010,08,29,09,36,14.30
2010,08,29,09,37,14.40
2010,08,29,09,38,14.50
2010,08,29,09,39,14.60
2010,08,29,09,40,14.70
2010,08,29,09,41,14.80
2010,08,29,09,42,14.80
2010,08,29,09,43,14.80
2010,08,29,09,44,14.90
2010,08,29,09,45,14.90
2010,08,29,09,46,14.90
2010,08,29,09,47,15.00
2010,08,29,09,48,15.00
2010,08,29,09,49,15.00
2010,08,29,09,50,15.10
2010,08,29,09,51,15.10
2010,08,29,09,52,15.10
2010,08,29,09,53,15.10
2010,08,29,09,54,15.10
2010,08,29,09,55,15.10
2010,08,29,09,56,15.10
2010,08,29,09,57,15.20
2010,08,29,09,58,15.30
2010,08,29,09,59,15.30
2010,08,29,10,00,15.30
2010,08,29,10,01,15.50
2010,08,29,10,02,15.60
2010,08,29,10,03,15.60
2010,08,29,10,04,15.70
2010,08,29,10,05,15.80
2010,08,29,10,06,15.80
2010,08,29,10,07,15.80
2010,08,29,10,08,15.80
2010,08,29,10,09,15.80
2010,08,29,10,10,15.80
2010,08,29,10,11,15.80
2010,08,29,10,12,15.80
2010,08,29,10,13,15.80
2010,08,29,10,14,15.80
2010,08,29,10,15,15.80
2010,08,29,10,16,15.80
2010,08,29,10,17,15.80
2010,08,29,10,18,15.80
2010,08,29,10,19,15.80
2010,08,29,10,20,15.80
2010,08,29,10,21,15.80
2010,08,29,10,22,15.80
2010,08,29,10,23,15.80
2010,08,29,10,24,15.80
2010,08,29,10,25,15.80
2010,08,29,10,26,15.80
2010,08,29,10,27,15.80
2010,08,29,10,28,15.70
2010,08,29,10,29,15.70
2010,08,29,10,30,15.60
2010,08,29,10,31,15.60
2010,08,29,10,32,15.60
2010,08,29,10,33,15.60
2010,08,29,10,34,15.50
2010,08,29,10,35,15.50
2010,08,29,10,36,15.50
2010,08,29,10,37,15.40
2010,08,29,10,38,15.40
2010,08,29,10,39,15.40
2010,08,29,10,40,15.40
2010,08,29,10,41,15.30
2010,08,29,10,42,15.30
2010,08,29,10,43,15.20
2010,08,29,10,44,15.20
2010,08,29,10,45,15.10
2010,08,29,10,46,15.20
2010,08,29,10,47,15.20
2010,08,29,10,48,15.10
2010,08,29,10,49,15.10
2010,08,29,10,50,15.10
2010,08,29,10,51,15.00
2010,08,29,10,52,14.90
2010,08,29,10,53,14.90
2010,08,29,10,54,14.80
2010,08,29,10,55,14.90
2010,08,29,10,56,14.80
2010,08,29,10,57,14.90
2010,08,29,10,58,14.90
2010,08,29,10,59,14.90
2010,08,29,11,00,14.90
2010,08,29,11,01,14.90
2010,08,29,11,02,15.00
2010,08,29,11,03,15.10
2010,08,29,11,04,15.10
2010,08,29,11,05,15.00
2010,08,29,11,06,15.00
2010,08,29,11,07,15.00
2010,08,29,11,08,15.00
2010,08,29,11,09,15.00
2010,08,29,11,10,15.00
2010,08,29,11,11,15.00
2010,08,29,11,12,15.00
2010,08,29,11,13,15.00
2010,08,29,11,14,15.00
2010,08,29,11,15,15.00
2010,08,29,11,16,15.00
2010,08,29,11,17,15.10
2010,08,29,11,18,15.10
2010,08,29,11,19,15.10
2010,08,29,11,20,15.20
2010,08,29,11,21,15.20
2010,08,29,11,22,15.20
2010,08,29,11,23,15.30
2010,08,29,11,24,15.30
2010,08,29,11,25,15.30
2010,08,29,11,26,15.30
2010,08,29,11,27,15.30
2010,08,29,11,28,15.40
2010,08,29,11,29,15.50
2010,08,29,11,30,15.50
2010,08,29,11,31,15.50
2010,08,29,11,32,15.50
2010,08,29,11,33,15.50
2010,08,29,11,34,15.50
2010,08,29,11,35,15.40
2010,08,29,11,36,15.30
2010,08,29,11,37,15.30
2010,08,29,11,38,15.30
2010,08,29,11,39,15.40
2010,08,29,11,40,15.40
2010,08,29,11,41,15.40
2010,08,29,11,42,15.50
2010,08,29,11,43,15.50
2010,08,29,11,44,15.50
2010,08,29,11,45,15.60
2010,08,29,11,46,15.70
2010,08,29,11,47,15.70
2010,08,29,11,48,15.70
2010,08,29,11,49,15.60
2010,08,29,11,50,15.50
2010,08,29,11,51,15.50
2010,08,29,11,52,15.40
2010,08,29,11,53,15.40
2010,08,29,11,54,15.30
2010,08,29,11,55,15.40
2010,08,29,11,56,15.40
2010,08,29,11,57,15.50
2010,08,29,11,58,15.50
2010,08,29,11,59,15.60
2010,08,29,12,00,15.60
2010,08,29,12,01,15.70
2010,08,29,12,02,15.80
2010,08,29,12,03,15.80
2010,08,29,12,04,15.90
2010,08,29,12,05,16.00
2010,08,29,12,06,16.10
2010,08,29,12,07,16.20
2010,08,29,12,08,16.30
2010,08,29,12,09,16.40
2010,08,29,12,10,16.60
2010,08,29,12,11,16.80
2010,08,29,12,12,16.90
2010,08,29,12,13,16.90
2010,08,29,12,14,16.90
2010,08,29,12,15,16.90
2010,08,29,12,16,16.80
2010,08,29,12,17,16.80
2010,08,29,12,18,16.90
2010,08,29,12,19,16.90
2010,08,29,12,20,16.90
2010,08,29,12,21,16.80
2010,08,29,12,22,16.90
2010,08,29,12,23,16.90
2010,08,29,12,24,17.00
2010,08,29,12,25,17.00
2010,08,29,12,26,17.10
2010,08,29,12,27,17.10
2010,08,29,12,28,17.30
2010,08,29,12,29,17.30
2010,08,29,12,30,17.20
2010,08,29,12,31,17.10
2010,08,29,12,32,17.20
2010,08,29,12,33,17.20
2010,08,29,12,34,17.30
2010,08,29,12,35,17.40
2010,08,29,12,36,17.40
2010,08,29,12,37,17.30
2010,08,29,12,38,17.30
2010,08,29,12,39,17.30
2010,08,29,12,40,17.30
2010,08,29,12,41,17.40
2010,08,29,12,42,17.50
2010,08,29,12,43,17.50
2010,08,29,12,44,17.50
2010,08,29,12,45,17.40
2010,08,29,12,46,17.50
2010,08,29,12,47,17.50
2010,08,29,12,48,17.50
2010,08,29,12,49,17.60
2010,08,29,12,50,17.70
2010,08,29,12,51,17.70
2010,08,29,12,52,17.60
2010,08,29,12,53,17.50
2010,08,29,12,54,17.50
2010,08,29,12,55,17.50
2010,08,29,12,56,17.50
2010,08,29,12,57,17.50
2010,08,29,12,58,17.60
2010,08,29,12,59,17.60
2010,08,29,13,00,17.70
2010,08,29,13,01,17.70
2010,08,29,13,02,17.70
2010,08,29,13,03,17.80
2010,08,29,13,04,17.90
2010,08,29,13,05,17.90
2010,08,29,13,06,18.00
2010,08,29,13,07,18.00
2010,08,29,13,08,18.10
2010,08,29,13,09,18.00
2010,08,29,13,10,17.90
2010,08,29,13,11,17.90
2010,08,29,13,12,17.90
2010,08,29,13,13,17.90
2010,08,29,13,14,17.90
2010,08,29,13,15,17.90
2010,08,29,13,16,18.10
2010,08,29,13,17,18.20
2010,08,29,13,18,18.20
2010,08,29,13,19,18.30
2010,08,29,13,20,18.30
2010,08,29,13,21,18.40
2010,08,29,13,22,18.40
2010,08,29,13,23,18.40
2010,08,29,13,24,18.50
2010,08,29,13,25,18.60
2010,08,29,13,26,18.60
2010,08,29,13,27,18.70
2010,08,29,13,28,18.70
2010,08,29,13,29,18.70
2010,08,29,13,30,18.70
2010,08,29,13,31,18.70
2010,08,29,13,32,18.60
2010,08,29,13,33,18.50
2010,08,29,13,34,18.50
2010,08,29,13,35,18.60
2010,08,29,13,36,18.50
2010,08,29,13,37,18.50
2010,08,29,13,38,18.40
2010,08,29,13,39,18.30
2010,08,29,13,40,18.30
2010,08,29,13,41,18.40
2010,08,29,13,42,18.50
2010,08,29,13,43,18.60
2010,08,29,13,44,18.70
2010,08,29,13,45,18.80
2010,08,29,13,46,18.90
2010,08,29,13,47,18.90
2010,08,29,13,48,18.90
2010,08,29,13,49,18.80
2010,08,29,13,50,18.70
2010,08,29,13,51,18.60
2010,08,29,13,52,18.50
2010,08,29,13,53,18.50
2010,08,29,13,54,18.40
2010,08,29,13,55,18.30
2010,08,29,13,56,18.40
2010,08,29,13,57,18.40
2010,08,29,13,58,18.30
2010,08,29,13,59,18.20
2010,08,29,14,00,18.30
2010,08,29,14,01,18.30
2010,08,29,14,02,18.40
2010,08,29,14,03,18.40
2010,08,29,14,04,18.30
2010,08,29,14,05,18.30
2010,08,29,14,06,18.30
2010,08,29,14,07,18.30
2010,08,29,14,08,18.50
2010,08,29,14,09,18.60
2010,08,29,14,10,18.60
2010,08,29,14,11,18.70
2010,08,29,14,12,18.70
2010,08,29,14,13,18.60
2010,08,29,14,14,18.60
2010,08,29,14,15,18.70
2010,08,29,14,16,18.80
2010,08,29,14,17,18.90
2010,08,29,14,18,19.10
2010,08,29,14,19,19.10
2010,08,29,14,20,19.10
2010,08,29,14,21,19.20
2010,08,29,14,22,19.20
2010,08,29,14,23,19.10
2010,08,29,14,24,19.10
2010,08,29,14,25,19.20
2010,08,29,14,26,19.30
2010,08,29,14,27,19.40
2010,08,29,14,28,19.50
2010,08,29,14,29,19.50
2010,08,29,14,30,19.60
2010,08,29,14,31,19.50
2010,08,29,14,32,19.40
2010,08,29,14,33,19.30
2010,08,29,14,34,19.20
2010,08,29,14,35,19.30
2010,08,29,14,36,19.30
2010,08,29,14,37,19.30
2010,08,29,14,38,19.30
2010,08,29,14,39,19.40
2010,08,29,14,40,19.40
2010,08,29,14,41,19.30
2010,08,29,14,42,19.10
2010,08,29,14,43,19.10
2010,08,29,14,44,19.00
2010,08,29,14,45,18.90
2010,08,29,14,46,18.80
2010,08,29,14,47,18.70
2010,08,29,14,48,18.60
2010,08,29,14,49,18.60
2010,08,29,14,50,18.70
2010,08,29,14,51,18.70
2010,08,29,14,52,18.80
2010,08,29,14,53,18.80
2010,08,29,14,54,18.70
2010,08,29,14,55,18.70
2010,08,29,14,56,18.70
2010,08,29,14,57,18.70
2010,08,29,14,58,18.70
2010,08,29,14,59,18.70
2010,08,29,15,00,18.60
2010,08,29,15,01,18.50
2010,08,29,15,02,18.30
2010,08,29,15,03,18.20
2010,08,29,15,04,18.20
2010,08,29,15,05,18.20
2010,08,29,15,06,18.20
2010,08,29,15,07,18.30
2010,08,29,15,08,18.40
2010,08,29,15,09,18.50
2010,08,29,15,10,18.60
2010,08,29,15,11,18.70
2010,08,29,15,12,18.70
2010,08,29,15,13,18.70
2010,08,29,15,14,18.70
2010,08,29,15,15,18.60
2010,08,29,15,16,18.50
2010,08,29,15,17,18.50
2010,08,29,15,18,18.60
2010,08,29,15,19,18.60
2010,08,29,15,20,18.50
2010,08,29,15,21,18.30
2010,08,29,15,22,18.20
2010,08,29,15,23,18.20
2010,08,29,15,24,18.30
2010,08,29,15,25,18.30
2010,08,29,15,26,18.30
2010,08,29,15,27,18.30
2010,08,29,15,28,18.30
2010,08,29,15,29,18.40
2010,08,29,15,30,18.50
2010,08,29,15,31,18.60
2010,08,29,15,32,18.60
2010,08,29,15,33,18.60
2010,08,29,15,34,18.60
2010,08,29,15,35,18.70
2010,08,29,15,36,18.80
2010,08,29,15,37,18.80
2010,08,29,15,38,18.70
2010,08,29,15,39,18.60
2010,08,29,15,40,18.60
2010,08,29,15,41,18.60
2010,08,29,15,42,18.70
2010,08,29,15,43,18.60
2010,08,29,15,44,18.60
2010,08,29,15,45,18.70
2010,08,29,15,46,18.70
2010,08,29,15,47,18.70
2010,08,29,15,48,18.60
2010,08,29,15,49,18.60
2010,08,29,15,50,18.60
2010,08,29,15,51,18.50
2010,08,29,15,52,18.40
2010,08,29,15,53,18.50
2010,08,29,15,54,18.50
2010,08,29,15,55,18.40
2010,08,29,15,56,18.50
2010,08,29,15,57,18.50
2010,08,29,15,58,18.50
2010,08,29,15,59,18.50
2010,08,29,16,00,18.40
2010,08,29,16,01,18.40
2010,08,29,16,02,18.40
2010,08,29,16,03,18.40
2010,08,29,16,04,18.40
2010,08,29,16,05,18.40
2010,08,29,16,06,18.30
2010,08,29,16,07,18.20
2010,08,29,16,08,18.20
2010,08,29,16,09,18.20
2010,08,29,16,10,18.20
2010,08,29,16,11,18.20
2010,08,29,16,12,18.20
2010,08,29,16,13,18.20
2010,08,29,16,14,18.20
2010,08,29,16,15,18.20
2010,08,29,16,16,18.30
2010,08,29,16,17,18.40
2010,08,29,16,18,18.50
2010,08,29,16,19,18.50
2010,08,29,16,20,18.40
2010,08,29,16,21,18.40
2010,08,29,16,22,18.40
2010,08,29,16,23,18.40
2010,08,29,16,24,18.50
2010,08,29,16,25,18.50
2010,08,29,16,26,18.60
2010,08,29,16,27,18.50
2010,08,29,16,28,18.30
2010,08,29,16,29,18.20
2010,08,29,16,30,18.20
2010,08,29,16,31,18.40
2010,08,29,16,32,18.40
2010,08,29,16,33,18.40
2010,08,29,16,34,18.40
2010,08,29,16,35,18.50
2010,08,29,16,36,18.50
2010,08,29,16,37,18.60
2010,08,29,16,38,18.60
2010,08,29,16,39,18.60
2010,08,29,16,40,18.80
2010,08,29,16,41,18.80
2010,08,29,16,42,18.80
2010,08,29,16,43,18.90
2010,08,29,16,44,18.90
2010,08,29,16,45,18.90
2010,08,29,16,46,18.90
2010,08,29,16,47,18.90
2010,08,29,16,48,18.80
2010,08,29,16,49,18.70
2010,08,29,16,50,18.90
2010,08,29,16,51,19.00
2010,08,29,16,52,19.10
2010,08,29,16,53,19.10
2010,08,29,16,54,19.10
2010,08,29,16,55,19.10
2010,08,29,16,56,18.90
2010,08,29,16,57,18.70
2010,08,29,16,58,18.70
2010,08,29,16,59,18.70
2010,08,29,17,00,18.70
2010,08,29,17,01,18.80
2010,08,29,17,02,18.80
2010,08,29,17,03,18.80
2010,08,29,17,04,18.90
2010,08,29,17,05,19.00
2010,08,29,17,06,19.10
2010,08,29,17,07,19.00
2010,08,29,17,08,18.90
2010,08,29,17,09,18.80
2010,08,29,17,10,18.60
2010,08,29,17,11,18.60
2010,08,29,17,12,18.70
2010,08,29,17,13,18.60
2010,08,29,17,14,18.60
2010,08,29,17,15,18.60
2010,08,29,17,16,18.50
2010,08,29,17,17,18.50
2010,08,29,17,18,18.40
2010,08,29,17,19,18.30
2010,08,29,17,20,18.20
2010,08,29,17,21,18.20
2010,08,29,17,22,18.20
2010,08,29,17,23,18.10
2010,08,29,17,24,18.10
2010,08,29,17,25,17.90
2010,08,29,17,26,17.90
2010,08,29,17,27,17.90
2010,08,29,17,28,17.90
2010,08,29,17,29,17.90
2010,08,29,17,30,17.80